Weather History for Glasgow, United Kingdom

Change the Weather History Date:

Tuesday, April 8, 2014

  Actual Average Record
Temperature  
Mean Temperature 46 °F -  
Max Temperature 51 °F 53 °F 57 °F (1997)
Min Temperature 41 °F 39 °F 28 °F (2008)
Degree Days  
Heating Degree Days 19    
Moisture  
Dew Point 40 °F    
Average Humidity 80    
Maximum Humidity 93    
Minimum Humidity 66    
Precipitation  
Precipitation 0.00 in - - ()
Sea Level Pressure  
Sea Level Pressure 29.86 in    
Wind  
Wind Speed 11 mph ()    
Max Wind Speed 21 mph    
Max Gust Speed -    
Visibility 6.0 miles    
Events Rain    
Averages and records for this station are not official NWS values.
T = Trace of Precipitation, MM = Missing Value Source: Averaged Metar Reports

Daily Weather History Graph

Daily Weather History Graph

Search for Another Location

Airport:

Trip Planner

Search our weather history database for the weather conditions in past years. The results will help you decide how hot, cold, wet, or windy it might be!

Date:

Astronomy

Apr. 08, 2014 Rise Set
Actual Time 6:30 AM BST 8:09 PM BST
Civil Twilight 5:51 AM BST 8:48 PM BST
Nautical Twilight 5:03 AM BST 9:37 PM BST
Astronomical Twilight 4:08 AM BST 10:33 PM BST
Moon 12:48 PM BST (4/8) 3:38 AM BST (4/8)
Length of Visible Light 14h 56m
Length of Day
13h 39m
First Quarter, 60% of the Moon is Illuminated
Apr 8
First Quarter
Apr 15
Full
Apr 22
Last Quarter
Apr 29
New
May 7
First Quarter

Hourly Weather History & Observations

Time (BST) Temp. Windchill Dew Point Humidity Pressure Visibility Wind Dir Wind Speed Gust Speed Precip Events Conditions
12:20 AM 44.6 °F 39.2 °F 41.0 °F 87% 29.62 in 6.2 mi West 10.4 mph - N/A Rain Light Rain
12:50 AM 44.6 °F 40.2 °F 41.0 °F 87% 29.62 in 6.2 mi West 8.1 mph - N/A Rain Light Rain
1:20 AM 44.6 °F 41.4 °F 41.0 °F 87% 29.62 in 6.2 mi West 5.8 mph - N/A   Mostly Cloudy
1:50 AM 44.6 °F 39.7 °F 41.0 °F 87% 29.62 in 6.2 mi West 9.2 mph - N/A   Mostly Cloudy
2:20 AM 42.8 °F 36.6 °F 39.2 °F 87% 29.65 in 6.2 mi West 11.5 mph - N/A Rain Light Rain
2:50 AM 42.8 °F 37.0 °F 39.2 °F 87% 29.65 in 6.2 mi West 10.4 mph - N/A   Mostly Cloudy
3:20 AM 41.0 °F 35.2 °F 37.4 °F 87% 29.65 in 6.2 mi West 9.2 mph - N/A   Scattered Clouds
3:50 AM 42.8 °F 37.5 °F 39.2 °F 87% 29.65 in 6.2 mi WSW 9.2 mph - N/A Rain Light Rain
4:20 AM 41.0 °F 35.8 °F 35.6 °F 81% 29.68 in 6.2 mi West 8.1 mph - N/A   Mostly Cloudy
4:50 AM 41.0 °F 34.7 °F 37.4 °F 87% 29.68 in 6.2 mi WSW 10.4 mph - N/A   Scattered Clouds
5:20 AM 41.0 °F 34.7 °F 37.4 °F 87% 29.68 in 6.2 mi WSW 10.4 mph - N/A   Mostly Cloudy
5:50 AM 41.0 °F 33.9 °F 37.4 °F 87% 29.71 in 6.2 mi West 12.7 mph - N/A   Mostly Cloudy
6:20 AM 41.0 °F 35.8 °F 35.6 °F 81% 29.71 in 6.2 mi West 8.1 mph - N/A   Scattered Clouds
6:50 AM 41.0 °F 36.4 °F 35.6 °F 81% 29.74 in 6.2 mi West 6.9 mph - N/A   Scattered Clouds
7:20 AM 41.0 °F 34.3 °F 37.4 °F 87% 29.74 in 6.2 mi WSW 11.5 mph - N/A Rain Light Rain Showers
7:50 AM 41.0 °F 36.4 °F 37.4 °F 87% 29.77 in 6.2 mi West 6.9 mph - N/A   Scattered Clouds
8:20 AM 42.8 °F 35.8 °F 39.2 °F 87% 29.77 in 6.2 mi WSW 13.8 mph - N/A   Scattered Clouds
8:50 AM 44.6 °F 38.4 °F 41.0 °F 87% 29.80 in 6.2 mi West 12.7 mph - N/A Rain Light Rain Showers
9:20 AM 44.6 °F 38.1 °F 39.2 °F 81% 29.80 in 6.2 mi West 13.8 mph - N/A   Partly Cloudy
9:50 AM 46.4 °F 39.8 °F 39.2 °F 76% 29.80 in 6.2 mi West 16.1 mph - N/A   Scattered Clouds
10:20 AM 48.2 °F - 39.2 °F 71% 29.83 in 6.2 mi West 16.1 mph - N/A   Mostly Cloudy
10:50 AM 48.2 °F - 41.0 °F 76% 29.86 in 6.2 mi West 15.0 mph - N/A   Mostly Cloudy
11:20 AM 50.0 °F - 41.0 °F 71% 29.86 in 6.2 mi West 16.1 mph - N/A   Mostly Cloudy
11:50 AM 50.0 °F - 39.2 °F 66% 29.89 in 6.2 mi West 16.1 mph - N/A   Mostly Cloudy
12:20 PM 48.2 °F - 39.2 °F 71% 29.89 in 6.2 mi West 15.0 mph - N/A   Mostly Cloudy
12:50 PM 50.0 °F - 41.0 °F 71% 29.92 in 6.2 mi West 15.0 mph - N/A   Mostly Cloudy
1:20 PM 50.0 °F - 41.0 °F 71% 29.92 in 6.2 mi West 13.8 mph - N/A   Mostly Cloudy
1:50 PM 51.8 °F - 41.0 °F 67% 29.92 in 6.2 mi West 15.0 mph - N/A   Mostly Cloudy
2:20 PM 51.8 °F - 41.0 °F 67% 29.92 in 6.2 mi WSW 20.7 mph - N/A   Mostly Cloudy
2:50 PM 50.0 °F - 42.8 °F 76% 29.95 in 6.2 mi West 19.6 mph - N/A Rain Light Rain Showers
3:20 PM 51.8 °F - 42.8 °F 71% 29.95 in 6.2 mi West 19.6 mph - N/A   Scattered Clouds
3:50 PM 50.0 °F - 41.0 °F 71% 29.98 in 6.2 mi West 19.6 mph - N/A Rain Light Rain Showers
4:20 PM 51.8 °F - 41.0 °F 67% 29.98 in 6.2 mi West 13.8 mph - N/A   Mostly Cloudy
4:50 PM 51.8 °F - 41.0 °F 67% 29.98 in 6.2 mi West 18.4 mph - N/A   Mostly Cloudy
5:20 PM 50.0 °F - 41.0 °F 71% 30.01 in 6.2 mi WSW 20.7 mph - N/A   Mostly Cloudy
5:50 PM 50.0 °F - 41.0 °F 71% 30.01 in 5.6 mi West 18.4 mph - N/A Rain Light Rain Showers
6:20 PM 48.2 °F - 41.0 °F 76% 30.04 in 6.2 mi West 12.7 mph - N/A Rain Light Rain Showers
6:50 PM 48.2 °F - 41.0 °F 76% 30.04 in 5.6 mi WSW 10.4 mph - N/A Rain Light Rain Showers
7:20 PM 46.4 °F 41.1 °F 42.8 °F 87% 30.04 in 6.2 mi WSW 11.5 mph - N/A   Mostly Cloudy
7:50 PM 48.2 °F - 42.8 °F 82% 30.04 in 6.2 mi WSW 11.5 mph - N/A   Mostly Cloudy
8:20 PM 48.2 °F - 41.0 °F 76% 30.04 in 6.2 mi WSW 12.7 mph - N/A   Mostly Cloudy
8:50 PM 48.2 °F - 41.0 °F 76% 30.04 in 6.2 mi WSW 13.8 mph - N/A   Mostly Cloudy
9:20 PM 48.2 °F - 42.8 °F 82% 30.06 in 5.6 mi WSW 16.1 mph - N/A Rain Light Rain
9:50 PM 46.4 °F 40.4 °F 44.6 °F 93% 30.06 in 6.2 mi WSW 13.8 mph - N/A Rain Light Rain
10:20 PM 46.4 °F 40.4 °F 44.6 °F 93% 30.06 in 5.0 mi WSW 13.8 mph - N/A Rain Light Rain
10:50 PM 46.4 °F 39.2 °F 44.6 °F 93% 30.06 in 4.3 mi WSW 18.4 mph - N/A   Overcast
11:20 PM 46.4 °F 39.5 °F 44.6 °F 93% 30.06 in 4.3 mi WSW 17.3 mph - N/A Rain Light Rain
11:50 PM 46.4 °F 39.5 °F 44.6 °F 93% 30.06 in 4.3 mi WSW 17.3 mph - N/A Rain Light Rain